Weather in Gorchukha

Russia / Kostroma Oblast     57°42′21″N   43°43′12″E
temp.,
°C
wind,
m/s
gust,
m/s
humid.,
%
clouds,
%
prec.,
mm/h
press.,
hPa
HPBL,
m
6 march, sat
sat600:00−13wnw3696100 0.2 1010157
03:00−18wnw239555 0.2 101329
06:00−18wnw129868 0.0 101320
09:00−14wnw129475 0.1 1014174
12:00−10wnw248591 0.0 1014642
15:00−9wnw358596 0.2 1012813
18:00−13wnw239297 0.1 101221
21:00−16wsw229552 0.1 101220
7 march, sun
sun700:00−17sw239837 0.0 101123
03:00−18s359835 0.0 100984
06:00−17s499770 0.0 1006182
09:00−11s6119285 0.0 1003416
12:00−8s61294100 0.4 999833
15:00−6s61094100 1.6 995922
18:00−6sse41095100 1.2 991653
21:00−6se51095100 2.3 989592
8 march, mon
mon800:00−6s4896100 0.6 988338
03:00−8wsw51194100 1.0 989578
06:00−9wsw51195100 0.8 989519
09:00−8wsw4795100 1.9 991418
12:00−6nw3594100 0.8 992483
15:00−7n5793100 1.4 994555
18:00−9nnw4994100 0.4 996532
21:00−11nnw51094100 0.8 999498
9 march, tue
tue900:00−13nnw4109394 0.1 1001484
03:00−15nnw4109496 0.1 1004379
06:00−16nnw499598 0.1 1007416
09:00−16nnw479297 0.2 1009456
12:00−15nw4592100 0.0 1011497
15:00−14nw4690100 0.1 1012621
18:00−17nnw3795100 0.1 1013243
21:00−21nnw3798100 0.1 1016175
10 march, wed
wed1000:00−25nnw339892 0.0 101763
03:00−27nnw339985 0.0 101957
06:00−29n339862 0.0 102056
09:00−26n359649 0.0 1021242
12:00−20n349078 0.0 1022472
15:00−17nnw358889 0.0 1021601
18:00−21nnw239595 0.0 102223
21:00−24nw239648 0.0 102420